This is the latest recevied weather packets stored in our database for station/object KC9VAF. If no packets are shown the sender has not sent any weather packets the latest 10 day(s).
| Time | Temp. | Humidity | Pressure | Rain* | Wind** | Luminosity | Snow |
|---|---|---|---|---|---|---|---|
| 1778239398 | 1.67° C | 95% | 1012.1 hPa | 0 mm | - | 23 W/m² | - |
| 1778239094 | 1.11° C | 95% | 1011.9 hPa | 0 mm | - | 25 W/m² | - |
| 1778238791 | 1.11° C | 96% | 1011.8 hPa | 0 mm | - | 19 W/m² | - |
| 1778238489 | 0.56° C | 96% | 1012 hPa | 0 mm | - | 14 W/m² | - |
| 1778238186 | 0.56° C | 96% | 1011.8 hPa | 0 mm | - | 12 W/m² | - |
| 1778237886 | 0.56° C | 96% | 1011.6 hPa | 0 mm | - | 9 W/m² | - |
| 1778237583 | 0.56° C | 96% | 1011.8 hPa | 0 mm | - | 6 W/m² | - |
| 1778237280 | 0° C | 95% | 1011.7 hPa | 0 mm | - | 5 W/m² | - |
| 1778236976 | 0.56° C | 95% | 1011.7 hPa | 0 mm | - | 3 W/m² | - |
| 1778236674 | 0.56° C | 96% | 1011.9 hPa | 0 mm | - | 1 W/m² | - |
| 1778236370 | -0.56° C | 95% | 1011.7 hPa | 0 mm | - | 0 W/m² | - |
| 1778236068 | -0.56° C | 95% | 1011.9 hPa | 0 mm | - | 0 W/m² | - |
| 1778235766 | 0° C | 95% | 1011.9 hPa | 0 mm | - | 0 W/m² | - |
| 1778235463 | 0° C | 95% | 1011.9 hPa | 0 mm | - | 0 W/m² | - |
| 1778235160 | 0° C | 95% | 1011.9 hPa | 0 mm | - | 0 W/m² | - |
| 1778234858 | 0° C | 95% | 1012 hPa | 0 mm | - | 0 W/m² | - |
| 1778234556 | 0° C | 95% | 1012 hPa | 0 mm | - | 0 W/m² | - |
| 1778234251 | 0° C | 95% | 1011.9 hPa | 0 mm | - | 0 W/m² | - |
| 1778233950 | 0° C | 95% | 1011.9 hPa | 0 mm | - | 0 W/m² | - |
| 1778233646 | 0° C | 95% | 1011.7 hPa | 0 mm | - | 0 W/m² | - |
| 1778233343 | 0° C | 95% | 1012 hPa | 0 mm | - | 0 W/m² | - |
| 1778233040 | -0.56° C | 95% | 1012 hPa | 0 mm | - | 0 W/m² | - |
| 1778232738 | -0.56° C | 95% | 1011.9 hPa | 0 mm | - | 0 W/m² | - |
| 1778232434 | -0.56° C | 94% | 1012.1 hPa | 0 mm | - | 0 W/m² | - |
| 1778232133 | 0° C | 94% | 1011.9 hPa | 0 mm | - | 0 W/m² | - |
* Rain latest hour (hover to see other rain measurements)
** Current wind speed in m/s (hover to see current wind gust speed)